Weather in Macedonia

United States     41°18′48″N   81°30′30″W
temp.,
°C
wind,
m/s
gust,
m/s
humid.,
%
clouds,
%
prec.,
mm/h
press.,
hPa
HPBL,
m
17 may, mon
mon1723:00+11ese2379100 0.0 102456
02:00+10se2481100 0.0 102476
05:00+9se2380100 0.0 102456
08:00+12se2577100 0.0 1025144
11:00+17sse3463100 0.0 1024564
14:00+19s3356100 0.0 10241366
17:00+19s2256100 0.1 10231434
20:00+16ese0079100 0.1 102411
18 may, tue
tue1823:00+13e1182100 0.0 102411
02:00+11se2288100 0.0 102531
05:00+11ese2389100 0.0 102561
08:00+13ese2581100 0.0 1026138
11:00+18se3464100 0.0 1026521
14:00+21se2354100 0.0 10251278
17:00+22s2255100 0.0 10241233
20:00+18wnw1181100 0.0 102514
19 may, wed
wed1923:00+14ese0087100 0.0 102510
02:00+14se2288100 0.0 102526
05:00+13ese249099 0.0 102579
08:00+15se258098 0.0 1027141
11:00+21sse3462100 0.0 1027591
14:00+22sw3466100 0.3 10261015
17:00+23ssw2360100 0.0 10251041
20:00+19s2282100 0.1 102530
20 may, thu
thu2023:00+17sse2284100 0.0 102635
02:00+16s238889 0.0 102639
05:00+15sse249196 0.0 102668
08:00+18s258278 0.0 1028145
11:00+24s2361100 0.0 1027683
14:00+26sw3452100 0.5 10261379
17:00+26sw3355100 0.0 10251425
20:00+22ssw227868 0.1 102518
21 may, fri
fri2123:00+19sse2282100 0.0 102621
02:00+18s2388100 0.0 102651
05:00+18ssw238798 0.0 102752
08:00+20wsw248174 0.0 1028154
11:00+25w356199 0.0 10281008
14:00+27w4555100 0.0 10271638
17:00+26wnw4660100 0.2 10261146
20:00+22wsw2382100 0.5 102567